Total_Precipitation_Accumulation
0.20 0.17 0.15 0.13 0.10 0.08 0.06 0.04 0.02 0.02 0.01 0.00 0.00 0.00 0.00 0.00 0.00 0.00 0.00 0.00 0.00 0.01 0.02 0.03 0.07 0.10 0.12 0.14 0.16 0.16 0.12 0.07 0.04 0.03 0.01 0.01 0.01 0.01 0.01 0.01 0.01 0.01 0.02
0.28 0.24 0.18 0.15 0.11 0.08 0.05 0.04 0.03 0.02 0.01 0.00 0.00 0.00 0.00 0.00 0.00 0.00 0.00 0.00 0.00 0.00 0.01 0.03 0.07 0.11 0.15 0.19 0.21 0.22 0.18 0.14 0.11 0.08 0.05 0.04 0.03 0.02 0.02 0.01 0.01 0.01 0.01
0.29 0.27 0.23 0.18 0.14 0.12 0.09 0.06 0.04 0.02 0.01 0.01 0.00 0.00 0.00 0.00 0.00 0.00 0.00 0.00 0.00 0.00 0.01 0.02 0.05 0.10 0.16 0.20 0.24 0.26 0.25 0.20 0.14 0.11 0.09 0.08 0.06 0.05 0.03 0.03 0.02 0.02 0.01
0.34 0.31 0.26 0.22 0.20 0.18 0.16 0.12 0.08 0.05 0.03 0.02 0.01 0.01 0.02 0.01 0.01 0.00 0.00 0.00 0.00 0.00 0.00 0.01 0.04 0.08 0.12 0.14 0.19 0.25 0.28 0.24 0.16 0.12 0.11 0.10 0.09 0.08 0.07 0.05 0.05 0.03 0.03
0.41 0.38 0.31 0.28 0.24 0.21 0.20 0.18 0.13 0.09 0.07 0.06 0.05 0.04 0.03 0.02 0.02 0.01 0.01 0.01 0.01 0.01 0.01 0.01 0.01 0.02 0.04 0.06 0.11 0.19 0.27 0.27 0.21 0.16 0.14 0.13 0.12 0.11 0.10 0.09 0.09 0.07 0.06
0.52 0.46 0.39 0.36 0.31 0.24 0.20 0.19 0.19 0.16 0.13 0.12 0.10 0.05 0.04 0.03 0.02 0.01 0.01 0.02 0.02 0.02 0.02 0.01 0.01 0.02 0.02 0.04 0.06 0.11 0.18 0.22 0.23 0.20 0.18 0.18 0.18 0.17 0.17 0.16 0.16 0.16 0.14
0.68 0.62 0.52 0.45 0.42 0.34 0.27 0.27 0.28 0.24 0.22 0.21 0.16 0.07 0.04 0.03 0.02 0.02 0.02 0.03 0.03 0.03 0.03 0.03 0.03 0.03 0.02 0.03 0.04 0.07 0.11 0.16 0.22 0.25 0.24 0.23 0.22 0.22 0.23 0.25 0.26 0.25 0.23
0.89 0.82 0.75 0.69 0.64 0.56 0.46 0.40 0.37 0.32 0.30 0.31 0.27 0.20 0.09 0.04 0.03 0.04 0.04 0.04 0.04 0.04 0.04 0.05 0.05 0.04 0.03 0.03 0.03 0.04 0.06 0.12 0.20 0.27 0.30 0.29 0.28 0.28 0.30 0.33 0.35 0.35 0.33
1.15 1.04 0.98 0.96 0.89 0.77 0.65 0.59 0.56 0.51 0.47 0.43 0.38 0.35 0.21 0.10 0.07 0.05 0.04 0.04 0.04 0.04 0.05 0.06 0.05 0.05 0.04 0.03 0.03 0.04 0.06 0.08 0.15 0.26 0.35 0.36 0.35 0.36 0.39 0.42 0.46 0.48 0.47
1.30 1.25 1.21 1.15 1.08 0.99 0.85 0.77 0.73 0.68 0.62 0.53 0.46 0.37 0.33 0.24 0.19 0.12 0.06 0.06 0.06 0.05 0.06 0.06 0.07 0.07 0.07 0.07 0.07 0.08 0.08 0.09 0.14 0.24 0.36 0.48 0.53 0.53 0.56 0.59 0.62 0.67 0.67
1.28 1.25 1.23 1.18 1.08 1.01 0.95 0.89 0.84 0.78 0.68 0.60 0.54 0.50 0.46 0.35 0.26 0.23 0.15 0.09 0.09 0.08 0.09 0.09 0.09 0.10 0.10 0.10 0.10 0.12 0.14 0.15 0.19 0.27 0.40 0.54 0.68 0.76 0.78 0.79 0.79 0.80 0.79
1.30 1.23 1.19 1.13 1.06 0.99 0.95 0.94 0.91 0.86 0.77 0.68 0.58 0.54 0.52 0.46 0.35 0.32 0.30 0.21 0.17 0.13 0.12 0.11 0.12 0.12 0.13 0.15 0.17 0.22 0.25 0.26 0.29 0.38 0.51 0.64 0.76 0.83 0.88 0.92 0.95 0.94 0.91
1.21 1.18 1.19 1.15 1.11 1.09 1.11 1.08 1.03 0.95 0.88 0.80 0.71 0.61 0.56 0.51 0.45 0.43 0.44 0.35 0.27 0.20 0.16 0.15 0.15 0.17 0.20 0.23 0.29 0.39 0.41 0.43 0.44 0.51 0.65 0.77 0.80 0.80 0.79 0.84 0.96 1.05 1.05
1.19 1.18 1.19 1.17 1.15 1.12 1.09 1.08 1.07 1.03 0.98 0.92 0.83 0.72 0.62 0.55 0.53 0.53 0.56 0.60 0.56 0.43 0.33 0.30 0.29 0.32 0.36 0.41 0.51 0.59 0.55 0.61 0.63 0.68 0.80 0.93 0.88 0.77 0.70 0.72 0.79 0.87 0.89
1.19 1.17 1.15 1.09 1.04 1.02 1.00 0.98 0.97 0.94 0.92 0.89 0.82 0.78 0.71 0.64 0.62 0.63 0.67 0.75 0.87 0.84 0.67 0.53 0.51 0.53 0.56 0.60 0.68 0.66 0.61 0.73 0.77 0.77 0.81 0.80 0.71 0.63 0.60 0.61 0.63 0.65 0.65
0.96 1.02 1.05 1.03 0.98 0.94 0.92 0.91 0.86 0.82 0.81 0.76 0.73 0.74 0.73 0.70 0.71 0.71 0.75 0.79 0.87 0.95 0.89 0.67 0.59 0.62 0.68 0.72 0.78 0.69 0.64 0.74 0.71 0.70 0.69 0.64 0.57 0.52 0.49 0.46 0.45 0.46 0.47
0.77 0.83 0.92 0.98 0.95 0.92 0.88 0.84 0.79 0.74 0.71 0.68 0.66 0.67 0.67 0.65 0.69 0.71 0.73 0.78 0.86 0.95 1.01 0.88 0.76 0.76 0.77 0.74 0.70 0.59 0.53 0.52 0.50 0.55 0.51 0.46 0.41 0.38 0.35 0.34 0.35 0.37 0.38
0.71 0.71 0.71 0.74 0.78 0.80 0.81 0.80 0.74 0.69 0.64 0.61 0.59 0.60 0.60 0.60 0.63 0.66 0.71 0.76 0.82 0.88 0.91 0.85 0.74 0.67 0.60 0.52 0.46 0.41 0.35 0.31 0.29 0.36 0.33 0.29 0.26 0.22 0.20 0.20 0.22 0.24 0.24
0.55 0.60 0.61 0.60 0.59 0.58 0.60 0.64 0.68 0.68 0.65 0.61 0.60 0.62 0.61 0.62 0.64 0.65 0.69 0.73 0.74 0.73 0.70 0.63 0.54 0.46 0.40 0.35 0.31 0.26 0.21 0.18 0.16 0.20 0.19 0.15 0.13 0.11 0.10 0.11 0.12 0.13 0.13
0.32 0.36 0.40 0.43 0.46 0.48 0.47 0.48 0.51 0.58 0.63 0.65 0.65 0.67 0.69 0.74 0.78 0.79 0.78 0.74 0.69 0.62 0.55 0.49 0.43 0.36 0.30 0.25 0.22 0.20 0.17 0.13 0.11 0.10 0.10 0.08 0.07 0.06 0.05 0.04 0.04 0.06 0.07
0.14 0.18 0.23 0.28 0.32 0.36 0.41 0.44 0.45 0.48 0.52 0.59 0.66 0.72 0.76 0.85 0.86 0.78 0.68 0.59 0.51 0.47 0.44 0.43 0.37 0.30 0.24 0.20 0.17 0.14 0.13 0.12 0.10 0.08 0.06 0.05 0.04 0.03 0.02 0.02 0.03 0.04 0.05
0.11 0.13 0.16 0.21 0.25 0.30 0.42 0.42 0.39 0.42 0.51 0.56 0.60 0.64 0.69 0.72 0.64 0.59 0.52 0.45 0.42 0.44 0.43 0.35 0.27 0.21 0.15 0.13 0.12 0.14 0.15 0.17 0.14 0.07 0.05 0.04 0.03 0.03 0.02 0.01 0.02 0.03 0.06
0.18 0.19 0.20 0.22 0.25 0.34 0.45 0.46 0.50 0.48 0.51 0.54 0.54 0.51 0.48 0.46 0.45 0.37 0.37 0.37 0.36 0.34 0.29 0.24 0.21 0.16 0.13 0.12 0.16 0.20 0.19 0.18 0.13 0.06 0.07 0.06 0.04 0.03 0.02 0.01 0.02 0.02 0.04
0.36 0.36 0.36 0.36 0.39 0.47 0.54 0.51 0.50 0.46 0.46 0.44 0.39 0.35 0.32 0.31 0.30 0.30 0.30 0.31 0.25 0.20 0.17 0.15 0.13 0.13 0.14 0.16 0.19 0.23 0.22 0.20 0.14 0.11 0.09 0.07 0.05 0.03 0.02 0.01 0.02 0.02 0.03
0.63 0.62 0.62 0.60 0.57 0.55 0.51 0.41 0.35 0.31 0.30 0.27 0.24 0.22 0.21 0.20 0.23 0.27 0.26 0.25 0.22 0.18 0.17 0.18 0.18 0.17 0.18 0.20 0.20 0.21 0.23 0.26 0.21 0.12 0.08 0.06 0.04 0.03 0.02 0.01 0.02 0.03 0.03
0.61 0.58 0.56 0.51 0.45 0.38 0.32 0.23 0.18 0.15 0.15 0.14 0.13 0.14 0.16 0.17 0.23 0.28 0.24 0.22 0.20 0.18 0.18 0.18 0.18 0.17 0.16 0.17 0.20 0.17 0.17 0.29 0.29 0.18 0.07 0.07 0.08 0.09 0.12 0.03 0.01 0.02 0.02